SCP
-0 -0 -0 -0 -0 -0 -0 -0 -0 -0 -0 -0 -0 0 0 0 0 0 0 0 0 0 0 0 -0 -0 0 0 -0 0 -0 -0 0 -0 -0 -0 0 0 0 0 0 0 0 -0 0 0 -0
-0 -0 -0 -0 -0 -0 -0 -0 -0 -0 -0 -0 -0 -0 0 0 0 0 0 0 0 0 0 0 0 -0 0 0 -0 0 0 0 -0 -0 -0 -0 -0 0 0 0 0 -0 0 -0 0 0 -0
-0 -0 -0 -0 -0 -0 -0 -0 -0 -0 -0 -0 -0 -0 0 0 0 0 0 0 0 0 0 0 0 0 0 -0 0 0 0 -0 0 0 0 0 0 0 -0 0 0 0 -0 -0 0 0 -0
-0 -0 -0 -0 -0 -0 -0 -0 -0 -0 -0 -0 -0 -0 -0 -0 -0 -0 0 0 0 0 0 0 0 0 -0 -0 0 0 -0 0 0 0 0 0 -0 -0 -0 -0 0 -0 0 0 0 -0 0
-0 -0 -0 -0 -0 -0 -0 -0 -0 -0 -0 -0 -0 -0 -0 -0 -0 -0 0 0 0 0 0 0 0 -0 -0 -0 0 0 0 0 0 0 0 -0 0 -0 -0 -0 -0 0 -0 -0 0 0 0
-0 -0 -0 -0 -0 -0 -0 -0 -0 -0 -0 -0 -0 -0 -0 -0 -0 -0 -0 0 -0 -0 -0 -0 -0 0 -0 -0 -0 0 0 0 0 -0 0 0 0 0 -0 -0 -0 0 0 0 0 0 -0
-0 -0 -0 -0 -0 -0 -0 -0 -0 -0 -0 -0 -0 -0 -0 -0 -0 -0 -0 0 0 0 0 0 -0 -0 0 -0 -0 -0 0 -0 0 -0 0 -0 -0 0 0 -0 0 -0 0 -0 -0 0 0
-0 -0 -0 -0 -0 -0 -0 -0 -0 -0 -0 -0 -0 -0 -0 -0 -0 -0 0 0 0 -0 -0 -0 0 0 0 0 0 0 0 0 0 -0 -0 -0 -0 0 0 -0 -0 -0 0 -0 -0 0 0
-0 -0 -0 -0 -0 -0 -0 -0 -0 -0 -0 -0 -0 -0 0 0 0 0 0 0 0 -0 0 -0 -0 -0 -0 -0 -0 -0 0 0 0 -0 -0 0 -0 0 0 -0 -0 0 0 0 0 -0 -0
-0 -0 -0 -0 -0 -0 -0 -0 -0 -0 -0 -0 -0 -0 0 0 0 0 0 0 0 0 -0 0 0 -0 0 0 -0 -0 -0 -0 0 -0 -0 0 0 0 0 0 0 0 -0 0 0 -0 0
-0 -0 -0 -0 -0 -0 -0 -0 -0 -0 -0 -0 -0 -0 0 0 0 0 0 0 -0 0 0 0 0 0 0 0 -0 0 -0 -0 -0 -0 0 0 0 0 0 0 0 0 0 -0 -0 0 0
-0 -0 -0 -0 -0 -0 -0 -0 -0 -0 -0 -0 -0 -0 0 0 0 0 0 0 -0 0 0 0 0 0 -0 -0 -0 0 -0 -0 0 0 0 0 0 0 0 0 0 0 -0 0 0 -0 -0
-0 -0 -0 -0 -0 -0 -0 -0 -0 -0 -0 -0 -0 -0 0 0 0 0 0 0 0 0 0 0 0 0 0 0 -0 0 0 0 0 -0 0 0 0 0 0 0 0 0 -0 -0 -0 -0 -0
-0 -0 -0 -0 -0 -0 -0 -0 -0 -0 -0 -0 -0 0 0 0 0 -0 -0 0 0 0 0 0 0 0 0 0 0 0 0 0 0 0 0 0 -0 0 0 0 0 0 0 -0 -0 -0 -0
-0 -0 -0 -0 -0 -0 -0 -0 -0 -0 -0 -0 -0 -0 -0 -0 -0 -0 0 0 0 0 0 0 0 0 0 0 0 0 0 0 0 0 0 0 0 -0 0 0 0 0 -0 -0 -0 -0 0
-0 -0 -0 -0 -0 -0 -0 -0 -0 -0 -0 -0 0 0 0 -0 -0 -0 0 0 0 0 -0 -0 0 0 0 0 0 0 0 0 0 0 0 0 0 0 0 0 0 0 0 -0 -0 -0 -0
-0 -0 -0 -0 -0 -0 -0 -0 -0 -0 -0 -0 -0 0 -0 -0 0 0 -0 -0 -0 -0 -0 0 -0 -0 -0 0 0 -0 0 0 0 -0 0 -0 0 0 0 -0 -0 0 0 0 -0 0 -0
-0 -0 -0 -0 -0 -0 -0 -0 -0 -0 -0 -0 0 -0 -0 -0 -0 -0 -0 -0 -0 0 -0 0 -0 -0 -0 -0 -0 -0 -0 -0 -0 -0 -0 -0 -0 -0 -0 -0 -0 0 0 0 0 -0 0
-0 -0 -0 -0 -0 -0 -0 -0 -0 -0 -0 0 0 0 0 0 0 0 0 -0 0 0 -0 -0 -0 -0 0 -0 -0 -0 -0 0 -0 -0 0 0 -0 -0 0 0 0 0 0 0 0 0 0
0 -0 -0 -0 -0 -0 -0 -0 -0 -0 -0 0 0 0 0 0 0 0 0 0 0 0 0 0 0 0 0 0 0 0 0 0 0 0 -0 -0 -0 -0 -0 0 0 -0 0 -0 0 0 0
0 0 -0 -0 -0 -0 -0 -0 -0 -0 -0 0 0 0 0 0 0 0 0 0 0 0 0 -0 0 -0 0 0 0 0 -0 -0 -0 0 0 0 0 0 0 0 -0 -0 -0 -0 0 0 0
-0 -0 0 -0 -0 -0 -0 -0 -0 -0 -0 -0 0 0 0 0 0 0 0 0 0 0 0 0 0 0 0 0 0 -0 0 -0 -0 0 0 0 0 0 -0 0 0 0 0 0 0 0 0
0 0 0 0 0 -0 -0 -0 -0 -0 -0 -0 0 0 0 0 0 0 0 0 0 0 0 0 0 0 0 0 0 0 0 0 0 0 0 0 0 0 0 0 0 0 0 0 0 0 -0
0 0 0 0 0 0 0 0 -0 -0 0 -0 0 0 0 0 0 0 0 0 0 0 0 0 0 0 0 0 0 0 0 0 0 -0 0 0 0 0 0 0 0 0 0 0 0 0 0
0 0 0 0 0 0 0 0 0 -0 -0 -0 -0 0 0 0 0 0 0 0 0 0 0 0 0 0 0 0 0 0 0 0 0 0 0 0 0 0 0 0 0 -0 -0 0 0 0 0
0 0 0 0 0 0 0 0 0 0 0 0 -0 0 0 0 0 0 0 0 0 0 0 0 0 0 0 0 0 0 0 0 0 0 0 0 0 0 0 0 0 -0 0 0 0 0 -0
0 0 0 0 0 0 0 0 0 0 0 0 -0 0 0 0 0 0 0 0 0 0 0 0 0 0 0 0 0 0 0 0 0 0 0 0 0 0 0 0 0 0 0 0 0 0 -0
0 0 0 0 0 0 0 0 0 0 0 0 -0 0 0 0 0 0 0 0 0 0 0 0 0 0 0 0 0 0 0 0 0 0 0 0 0 0 0 0 0 0 0 0 0 0 0
0 0 0 0 0 0 0 0 0 0 0 0 0 0 0 0 0 0 0 0 0 0 0 0 0 0 0 0 0 0 0 0 0 0 0 0 0 0 0 0 0 0 0 0 0 0 0
Wind_Speed_500mb
48 47 48 47 47 47 48 46 46 47 46 46 38 26 15 7 1 5 9 10 13 16 17 15 11 10 14 11 11 11 25 12 8 11 15 17 23 27 3 1 3 2 6 11 10 15 26
48 47 47 47 47 48 49 47 45 44 44 43 40 29 17 10 2 3 6 8 11 14 16 13 10 8 10 7 5 11 28 2 11 10 9 25 29 29 9 6 4 6 7 16 17 4 13
47 46 47 47 48 48 48 47 45 43 42 40 38 33 21 13 5 3 6 8 10 12 12 9 9 9 17 22 4 10 17 9 7 0 10 44 27 44 19 8 29 26 8 3 14 19 21
48 49 49 48 48 48 48 47 45 43 40 37 35 33 26 16 9 5 5 6 6 8 9 9 5 9 16 11 15 9 5 10 6 1 14 35 29 33 29 13 11 18 12 17 4 24 10
49 50 51 51 50 49 49 47 44 41 37 34 31 29 28 22 14 8 6 5 3 6 6 6 5 8 18 12 20 14 11 4 6 11 13 30 21 13 18 9 9 9 8 23 15 20 13
52 52 52 52 52 51 49 48 45 40 34 30 27 24 23 22 20 14 13 11 6 4 5 7 9 12 18 16 10 12 19 14 8 11 5 33 12 6 7 10 4 3 2 9 13 15 4
52 53 54 54 54 53 51 50 46 41 35 28 23 18 15 14 13 10 8 8 4 3 14 17 7 19 25 7 10 27 31 26 44 27 10 12 10 6 12 8 7 8 12 20 28 21 4
54 55 55 55 56 56 53 51 48 43 37 29 21 15 11 8 11 13 16 16 14 7 16 25 36 38 34 31 14 26 42 19 16 6 6 1 2 8 12 7 4 6 12 19 24 11 8
55 55 55 56 57 58 55 52 49 45 38 29 21 15 11 10 13 15 16 9 14 19 6 15 27 38 29 16 19 22 30 30 7 2 6 8 12 1 5 6 21 11 10 15 14 16 24
54 55 57 57 58 59 58 55 50 47 39 31 21 15 10 11 7 3 14 13 18 8 9 13 8 14 30 13 7 27 33 35 3 9 9 6 12 10 13 16 12 9 14 14 10 2 4
56 57 58 60 61 63 61 57 52 48 40 31 20 13 11 8 8 6 11 15 22 7 9 8 9 5 15 19 6 7 48 25 21 19 9 16 10 12 15 15 26 19 19 9 4 12 9
60 60 62 63 64 66 66 61 55 48 41 29 20 12 11 5 14 4 7 7 9 10 9 6 13 9 9 22 12 13 28 10 19 10 9 14 13 11 11 24 38 5 1 13 12 3 7
64 65 65 66 68 68 69 67 60 50 40 26 18 10 8 6 11 4 5 10 9 7 6 10 11 9 11 12 8 11 9 9 13 6 11 7 12 8 27 14 22 6 13 5 10 10 3
66 68 68 69 71 72 72 71 65 55 42 17 13 11 7 5 12 7 7 10 6 12 8 6 13 7 15 11 14 8 11 10 13 7 5 7 14 19 19 15 14 10 14 10 7 6 8
66 68 69 70 72 72 74 75 69 59 43 14 8 8 2 6 15 6 4 8 12 8 7 4 8 7 8 11 10 11 16 16 18 19 16 10 10 8 13 14 15 7 7 4 15 9 7
69 69 70 71 72 72 72 75 73 62 45 21 9 8 6 13 14 11 8 9 8 8 19 7 5 5 11 11 8 13 15 15 17 23 17 9 5 12 6 13 10 13 20 6 6 10 7
69 71 73 74 74 73 73 72 75 64 51 23 8 6 5 12 10 3 4 11 13 39 53 3 2 5 4 4 8 8 5 10 13 3 19 8 7 13 8 11 18 7 6 9 11 8 11
68 70 73 74 76 75 73 71 71 70 57 23 7 5 16 14 3 3 2 8 30 22 47 16 6 5 5 7 9 17 14 24 40 16 7 2 10 3 8 16 11 10 12 11 9 9 5
64 68 71 73 75 76 74 70 68 65 60 42 17 11 21 24 6 9 17 12 12 29 24 20 26 21 12 14 11 19 13 27 61 17 2 4 4 8 17 15 9 5 2 6 14 8 13
59 64 67 70 73 76 76 74 68 63 49 25 10 8 12 15 8 6 11 13 18 30 23 26 17 21 17 18 16 13 27 21 38 27 63 20 5 13 11 17 6 14 11 15 14 8 13
57 59 63 66 69 73 76 76 71 64 52 17 16 9 12 9 14 21 5 10 15 18 25 50 14 25 15 12 14 15 13 15 40 29 34 10 5 11 8 13 5 7 8 14 11 9 13
56 58 60 63 65 69 72 73 73 68 55 56 15 16 20 13 27 11 20 17 18 15 12 15 18 24 10 11 7 15 9 8 8 19 16 10 6 10 14 15 17 11 18 13 14 19 8
52 55 57 60 63 65 66 67 68 68 62 33 39 20 10 13 18 9 11 11 15 19 9 31 27 12 12 19 49 48 30 32 19 8 7 5 4 8 12 11 14 11 8 7 9 12 18
47 49 51 55 60 61 61 61 59 55 50 44 43 16 12 8 9 4 16 21 19 21 8 24 37 15 30 53 41 26 30 29 32 28 30 12 2 8 9 11 8 16 8 20 17 11 12
44 45 45 48 52 55 57 56 53 46 34 33 41 28 12 5 19 11 30 15 16 32 18 12 27 38 42 25 11 13 12 14 12 15 17 20 9 4 7 8 13 17 8 4 7 11 9
41 41 42 44 46 48 51 51 49 45 37 19 26 25 6 7 5 12 12 19 6 9 16 14 42 38 26 4 6 3 5 3 11 22 7 8 4 9 6 6 12 12 42 46 9 9 63
39 39 39 40 43 47 47 48 46 41 35 24 19 24 13 10 12 22 3 3 10 10 5 11 23 26 31 8 2 5 7 9 5 11 10 12 9 5 8 8 4 35 50 21 14 20 78
38 37 36 37 39 44 44 43 44 41 36 28 17 22 17 9 35 9 10 17 38 15 5 14 16 14 12 11 6 6 7 5 6 9 11 4 4 6 7 7 2 62 22 16 19 53 68
38 35 35 35 36 41 44 41 38 40 39 32 24 15 19 22 27 44 26 11 25 13 11 3 2 6 4 7 7 5 6 6 3 8 12 7 8 4 4 3 11 36 20 33 47 52 69
Wind_Direction_500mb
9 10 8 7 5 4 4 7 8 8 10 9 11 10 11 9 103 200 198 190 203 208 219 232 251 286 316 313 287 335 351 315 188 204 218 275 307 299 275 212 204 142 256 318 204 278 216
13 12 10 8 5 4 5 6 9 8 9 11 13 14 16 13 42 171 186 182 194 208 218 231 251 282 304 285 8 351 350 241 177 219 348 336 290 317 43 310 341 327 251 3 18 25 251
13 10 8 7 6 5 4 5 6 8 9 10 14 16 20 18 20 121 157 174 187 199 212 220 253 285 281 272 215 314 18 92 131 205 28 29 62 43 21 12 37 24 10 161 345 287 296
12 10 8 7 7 6 4 3 3 4 6 8 12 17 21 27 35 75 132 160 180 188 198 207 257 304 268 291 280 243 179 134 181 71 82 27 34 53 47 327 45 24 41 359 106 272 289
12 10 11 11 9 7 4 1 1 2 4 5 8 14 23 27 33 48 77 99 123 156 180 176 217 287 267 232 226 236 213 122 240 264 294 358 22 74 29 75 29 349 292 310 295 185 341
15 15 13 11 9 7 3 0 360 359 360 1 5 8 17 28 39 51 64 50 59 129 177 182 224 299 244 235 210 212 185 188 80 325 40 34 39 81 25 60 205 283 304 298 276 339 142
17 15 13 10 8 6 4 0 358 356 354 357 1 3 7 10 18 12 354 354 359 267 223 226 234 234 303 329 283 164 174 113 72 52 28 6 47 81 149 163 172 203 287 304 284 297 3
17 14 12 10 7 4 4 0 356 354 350 350 352 352 344 329 333 320 314 298 332 307 299 291 249 257 275 292 285 168 181 86 94 97 215 335 319 139 102 167 120 243 219 267 293 222 231
14 13 11 9 6 4 2 0 356 352 348 345 345 345 330 314 303 296 293 338 338 328 315 283 237 236 259 285 246 250 159 123 108 173 217 158 238 98 76 50 352 321 263 274 235 284 212
13 11 10 8 6 4 2 360 356 349 347 342 342 339 323 317 295 297 28 50 16 356 54 282 209 250 231 192 278 248 194 151 161 225 341 20 293 181 134 118 228 317 263 156 244 133 145
13 12 10 8 6 4 3 1 357 350 346 338 336 335 319 284 224 219 342 17 354 307 17 212 218 217 180 180 206 275 175 175 155 196 155 243 203 196 161 184 177 228 253 300 195 107 93
13 11 10 8 7 5 3 3 360 352 345 334 325 329 332 273 216 288 287 313 328 47 274 240 157 148 96 205 222 257 269 165 141 137 269 263 251 171 137 195 193 206 254 9 20 35 68
12 10 9 7 6 5 2 2 2 355 348 333 321 316 326 223 164 220 257 323 54 147 303 199 177 157 183 215 251 177 169 168 166 117 246 282 233 124 155 172 203 190 63 351 1 13 223
10 8 7 6 5 4 1 359 2 0 351 339 319 308 312 219 199 286 338 53 74 243 266 225 143 100 178 181 244 213 149 225 269 163 87 213 327 169 180 176 163 168 144 154 129 348 310
8 6 5 5 3 3 2 359 360 5 357 356 316 303 350 113 186 192 28 54 215 256 263 7 68 157 275 236 189 168 212 214 215 170 180 154 270 257 161 145 145 203 67 124 103 359 26
6 5 4 4 3 3 3 0 356 5 3 355 340 323 201 147 143 165 77 234 255 230 312 279 78 156 171 248 171 159 184 218 230 185 169 230 284 216 183 119 27 166 158 83 30 108 65
6 5 3 3 3 3 4 4 357 360 10 3 37 10 134 161 144 225 147 243 285 313 328 155 268 20 128 5 228 286 287 332 175 40 156 195 124 289 113 201 171 94 205 71 111 112 154
4 5 5 3 3 3 4 5 5 354 9 25 36 35 161 193 34 8 200 234 301 333 360 355 38 94 72 14 24 38 352 0 351 158 151 208 127 324 271 279 174 107 162 146 120 223 219
3 5 6 5 4 4 5 7 6 3 1 8 358 338 175 207 44 327 313 327 337 15 10 359 10 11 358 30 50 33 5 352 1 355 150 209 30 7 350 0 8 280 86 107 100 106 191
3 3 5 6 6 6 6 7 8 6 5 15 27 21 2 70 63 13 347 344 2 3 42 12 35 37 9 27 15 20 7 358 348 13 14 21 100 151 183 227 210 313 178 176 128 132 164
359 2 4 6 8 8 7 7 9 12 11 19 37 43 19 330 344 338 357 2 16 6 6 28 30 25 11 3 8 14 350 340 341 21 3 41 354 342 286 239 267 282 180 210 205 158 165
355 358 1 4 8 8 8 9 9 12 20 44 46 9 352 315 333 15 7 357 18 347 13 354 358 337 13 48 343 309 327 357 270 325 359 358 290 32 316 325 355 317 329 216 194 199 284
351 354 357 1 5 8 8 11 12 13 21 38 28 19 342 332 350 35 347 337 6 6 326 18 15 4 44 347 311 293 290 290 251 278 329 274 54 26 281 342 340 1 291 231 257 177 174
346 349 353 357 0 4 6 10 15 19 23 28 25 14 3 302 29 355 339 5 20 3 296 338 25 30 325 333 324 302 291 263 255 250 213 248 142 159 248 17 343 238 283 255 216 287 261
338 341 346 350 355 360 2 5 10 16 19 13 22 31 10 309 342 354 351 8 356 1 353 306 7 341 332 318 2 359 341 357 298 255 247 203 171 239 167 185 270 303 283 286 188 263 236
330 333 337 342 348 354 358 1 4 6 9 358 7 14 26 328 263 352 313 8 353 330 345 320 331 345 349 53 73 206 241 288 318 325 40 70 184 152 130 167 226 334 332 299 148 221 1
320 324 328 333 338 344 352 355 357 359 6 6 355 360 2 302 247 323 38 323 356 1 291 326 343 338 7 16 73 192 247 302 295 323 323 335 344 196 184 208 279 337 335 340 62 322 325
310 315 318 322 332 338 343 350 351 352 355 1 350 339 347 287 298 224 226 296 303 277 178 314 351 359 359 41 41 319 35 340 343 277 327 39 340 339 339 185 274 356 20 51 317 326 327
298 306 310 316 325 331 335 342 348 345 345 348 354 332 287 273 272 291 284 320 262 250 258 261 230 284 274 59 19 2 355 347 340 293 344 44 121 249 108 248 115 12 37 358 347 334 333
Wind_Speed_850mb
48 47 48 47 47 47 48 46 46 47 46 46 38 26 15 7 1 5 9 10 13 16 17 15 11 10 14 11 11 11 25 12 8 11 15 17 23 27 3 1 3 2 6 11 10 15 26
48 47 47 47 47 48 49 47 45 44 44 43 40 29 17 10 2 3 6 8 11 14 16 13 10 8 10 7 5 11 28 2 11 10 9 25 29 29 9 6 4 6 7 16 17 4 13
47 46 47 47 48 48 48 47 45 43 42 40 38 33 21 13 5 3 6 8 10 12 12 9 9 9 17 22 4 10 17 9 7 0 10 44 27 44 19 8 29 26 8 3 14 19 21
48 49 49 48 48 48 48 47 45 43 40 37 35 33 26 16 9 5 5 6 6 8 9 9 5 9 16 11 15 9 5 10 6 1 14 35 29 33 29 13 11 18 12 17 4 24 10
49 50 51 51 50 49 49 47 44 41 37 34 31 29 28 22 14 8 6 5 3 6 6 6 5 8 18 12 20 14 11 4 6 11 13 30 21 13 18 9 9 9 8 23 15 20 13
52 52 52 52 52 51 49 48 45 40 34 30 27 24 23 22 20 14 13 11 6 4 5 7 9 12 18 16 10 12 19 14 8 11 5 33 12 6 7 10 4 3 2 9 13 15 4
52 53 54 54 54 53 51 50 46 41 35 28 23 18 15 14 13 10 8 8 4 3 14 17 7 19 25 7 10 27 31 26 44 27 10 12 10 6 12 8 7 8 12 20 28 21 4
54 55 55 55 56 56 53 51 48 43 37 29 21 15 11 8 11 13 16 16 14 7 16 25 36 38 34 31 14 26 42 19 16 6 6 1 2 8 12 7 4 6 12 19 24 11 8
55 55 55 56 57 58 55 52 49 45 38 29 21 15 11 10 13 15 16 9 14 19 6 15 27 38 29 16 19 22 30 30 7 2 6 8 12 1 5 6 21 11 10 15 14 16 24
54 55 57 57 58 59 58 55 50 47 39 31 21 15 10 11 7 3 14 13 18 8 9 13 8 14 30 13 7 27 33 35 3 9 9 6 12 10 13 16 12 9 14 14 10 2 4
56 57 58 60 61 63 61 57 52 48 40 31 20 13 11 8 8 6 11 15 22 7 9 8 9 5 15 19 6 7 48 25 21 19 9 16 10 12 15 15 26 19 19 9 4 12 9
60 60 62 63 64 66 66 61 55 48 41 29 20 12 11 5 14 4 7 7 9 10 9 6 13 9 9 22 12 13 28 10 19 10 9 14 13 11 11 24 38 5 1 13 12 3 7
64 65 65 66 68 68 69 67 60 50 40 26 18 10 8 6 11 4 5 10 9 7 6 10 11 9 11 12 8 11 9 9 13 6 11 7 12 8 27 14 22 6 13 5 10 10 3
66 68 68 69 71 72 72 71 65 55 42 17 13 11 7 5 12 7 7 10 6 12 8 6 13 7 15 11 14 8 11 10 13 7 5 7 14 19 19 15 14 10 14 10 7 6 8
66 68 69 70 72 72 74 75 69 59 43 14 8 8 2 6 15 6 4 8 12 8 7 4 8 7 8 11 10 11 16 16 18 19 16 10 10 8 13 14 15 7 7 4 15 9 7
69 69 70 71 72 72 72 75 73 62 45 21 9 8 6 13 14 11 8 9 8 8 19 7 5 5 11 11 8 13 15 15 17 23 17 9 5 12 6 13 10 13 20 6 6 10 7
69 71 73 74 74 73 73 72 75 64 51 23 8 6 5 12 10 3 4 11 13 39 53 3 2 5 4 4 8 8 5 10 13 3 19 8 7 13 8 11 18 7 6 9 11 8 11
68 70 73 74 76 75 73 71 71 70 57 23 7 5 16 14 3 3 2 8 30 22 47 16 6 5 5 7 9 17 14 24 40 16 7 2 10 3 8 16 11 10 12 11 9 9 5
64 68 71 73 75 76 74 70 68 65 60 42 17 11 21 24 6 9 17 12 12 29 24 20 26 21 12 14 11 19 13 27 61 17 2 4 4 8 17 15 9 5 2 6 14 8 13
59 64 67 70 73 76 76 74 68 63 49 25 10 8 12 15 8 6 11 13 18 30 23 26 17 21 17 18 16 13 27 21 38 27 63 20 5 13 11 17 6 14 11 15 14 8 13
57 59 63 66 69 73 76 76 71 64 52 17 16 9 12 9 14 21 5 10 15 18 25 50 14 25 15 12 14 15 13 15 40 29 34 10 5 11 8 13 5 7 8 14 11 9 13
56 58 60 63 65 69 72 73 73 68 55 56 15 16 20 13 27 11 20 17 18 15 12 15 18 24 10 11 7 15 9 8 8 19 16 10 6 10 14 15 17 11 18 13 14 19 8
52 55 57 60 63 65 66 67 68 68 62 33 39 20 10 13 18 9 11 11 15 19 9 31 27 12 12 19 49 48 30 32 19 8 7 5 4 8 12 11 14 11 8 7 9 12 18
47 49 51 55 60 61 61 61 59 55 50 44 43 16 12 8 9 4 16 21 19 21 8 24 37 15 30 53 41 26 30 29 32 28 30 12 2 8 9 11 8 16 8 20 17 11 12
44 45 45 48 52 55 57 56 53 46 34 33 41 28 12 5 19 11 30 15 16 32 18 12 27 38 42 25 11 13 12 14 12 15 17 20 9 4 7 8 13 17 8 4 7 11 9
41 41 42 44 46 48 51 51 49 45 37 19 26 25 6 7 5 12 12 19 6 9 16 14 42 38 26 4 6 3 5 3 11 22 7 8 4 9 6 6 12 12 42 46 9 9 63
39 39 39 40 43 47 47 48 46 41 35 24 19 24 13 10 12 22 3 3 10 10 5 11 23 26 31 8 2 5 7 9 5 11 10 12 9 5 8 8 4 35 50 21 14 20 78
38 37 36 37 39 44 44 43 44 41 36 28 17 22 17 9 35 9 10 17 38 15 5 14 16 14 12 11 6 6 7 5 6 9 11 4 4 6 7 7 2 62 22 16 19 53 68
38 35 35 35 36 41 44 41 38 40 39 32 24 15 19 22 27 44 26 11 25 13 11 3 2 6 4 7 7 5 6 6 3 8 12 7 8 4 4 3 11 36 20 33 47 52 69
Wind_Direction_850mb
9 10 8 7 5 4 4 7 8 8 10 9 11 10 11 9 103 200 198 190 203 208 219 232 251 286 316 313 287 335 351 315 188 204 218 275 307 299 275 212 204 142 256 318 204 278 216
13 12 10 8 5 4 5 6 9 8 9 11 13 14 16 13 42 171 186 182 194 208 218 231 251 282 304 285 8 351 350 241 177 219 348 336 290 317 43 310 341 327 251 3 18 25 251
13 10 8 7 6 5 4 5 6 8 9 10 14 16 20 18 20 121 157 174 187 199 212 220 253 285 281 272 215 314 18 92 131 205 28 29 62 43 21 12 37 24 10 161 345 287 296
12 10 8 7 7 6 4 3 3 4 6 8 12 17 21 27 35 75 132 160 180 188 198 207 257 304 268 291 280 243 179 134 181 71 82 27 34 53 47 327 45 24 41 359 106 272 289
12 10 11 11 9 7 4 1 1 2 4 5 8 14 23 27 33 48 77 99 123 156 180 176 217 287 267 232 226 236 213 122 240 264 294 358 22 74 29 75 29 349 292 310 295 185 341
15 15 13 11 9 7 3 0 360 359 360 1 5 8 17 28 39 51 64 50 59 129 177 182 224 299 244 235 210 212 185 188 80 325 40 34 39 81 25 60 205 283 304 298 276 339 142
17 15 13 10 8 6 4 0 358 356 354 357 1 3 7 10 18 12 354 354 359 267 223 226 234 234 303 329 283 164 174 113 72 52 28 6 47 81 149 163 172 203 287 304 284 297 3
17 14 12 10 7 4 4 0 356 354 350 350 352 352 344 329 333 320 314 298 332 307 299 291 249 257 275 292 285 168 181 86 94 97 215 335 319 139 102 167 120 243 219 267 293 222 231
14 13 11 9 6 4 2 0 356 352 348 345 345 345 330 314 303 296 293 338 338 328 315 283 237 236 259 285 246 250 159 123 108 173 217 158 238 98 76 50 352 321 263 274 235 284 212
13 11 10 8 6 4 2 360 356 349 347 342 342 339 323 317 295 297 28 50 16 356 54 282 209 250 231 192 278 248 194 151 161 225 341 20 293 181 134 118 228 317 263 156 244 133 145
13 12 10 8 6 4 3 1 357 350 346 338 336 335 319 284 224 219 342 17 354 307 17 212 218 217 180 180 206 275 175 175 155 196 155 243 203 196 161 184 177 228 253 300 195 107 93
13 11 10 8 7 5 3 3 360 352 345 334 325 329 332 273 216 288 287 313 328 47 274 240 157 148 96 205 222 257 269 165 141 137 269 263 251 171 137 195 193 206 254 9 20 35 68
12 10 9 7 6 5 2 2 2 355 348 333 321 316 326 223 164 220 257 323 54 147 303 199 177 157 183 215 251 177 169 168 166 117 246 282 233 124 155 172 203 190 63 351 1 13 223
10 8 7 6 5 4 1 359 2 0 351 339 319 308 312 219 199 286 338 53 74 243 266 225 143 100 178 181 244 213 149 225 269 163 87 213 327 169 180 176 163 168 144 154 129 348 310
8 6 5 5 3 3 2 359 360 5 357 356 316 303 350 113 186 192 28 54 215 256 263 7 68 157 275 236 189 168 212 214 215 170 180 154 270 257 161 145 145 203 67 124 103 359 26
6 5 4 4 3 3 3 0 356 5 3 355 340 323 201 147 143 165 77 234 255 230 312 279 78 156 171 248 171 159 184 218 230 185 169 230 284 216 183 119 27 166 158 83 30 108 65
6 5 3 3 3 3 4 4 357 360 10 3 37 10 134 161 144 225 147 243 285 313 328 155 268 20 128 5 228 286 287 332 175 40 156 195 124 289 113 201 171 94 205 71 111 112 154
4 5 5 3 3 3 4 5 5 354 9 25 36 35 161 193 34 8 200 234 301 333 360 355 38 94 72 14 24 38 352 0 351 158 151 208 127 324 271 279 174 107 162 146 120 223 219
3 5 6 5 4 4 5 7 6 3 1 8 358 338 175 207 44 327 313 327 337 15 10 359 10 11 358 30 50 33 5 352 1 355 150 209 30 7 350 0 8 280 86 107 100 106 191
3 3 5 6 6 6 6 7 8 6 5 15 27 21 2 70 63 13 347 344 2 3 42 12 35 37 9 27 15 20 7 358 348 13 14 21 100 151 183 227 210 313 178 176 128 132 164
359 2 4 6 8 8 7 7 9 12 11 19 37 43 19 330 344 338 357 2 16 6 6 28 30 25 11 3 8 14 350 340 341 21 3 41 354 342 286 239 267 282 180 210 205 158 165
355 358 1 4 8 8 8 9 9 12 20 44 46 9 352 315 333 15 7 357 18 347 13 354 358 337 13 48 343 309 327 357 270 325 359 358 290 32 316 325 355 317 329 216 194 199 284
351 354 357 1 5 8 8 11 12 13 21 38 28 19 342 332 350 35 347 337 6 6 326 18 15 4 44 347 311 293 290 290 251 278 329 274 54 26 281 342 340 1 291 231 257 177 174
346 349 353 357 0 4 6 10 15 19 23 28 25 14 3 302 29 355 339 5 20 3 296 338 25 30 325 333 324 302 291 263 255 250 213 248 142 159 248 17 343 238 283 255 216 287 261
338 341 346 350 355 360 2 5 10 16 19 13 22 31 10 309 342 354 351 8 356 1 353 306 7 341 332 318 2 359 341 357 298 255 247 203 171 239 167 185 270 303 283 286 188 263 236
330 333 337 342 348 354 358 1 4 6 9 358 7 14 26 328 263 352 313 8 353 330 345 320 331 345 349 53 73 206 241 288 318 325 40 70 184 152 130 167 226 334 332 299 148 221 1
320 324 328 333 338 344 352 355 357 359 6 6 355 360 2 302 247 323 38 323 356 1 291 326 343 338 7 16 73 192 247 302 295 323 323 335 344 196 184 208 279 337 335 340 62 322 325
310 315 318 322 332 338 343 350 351 352 355 1 350 339 347 287 298 224 226 296 303 277 178 314 351 359 359 41 41 319 35 340 343 277 327 39 340 339 339 185 274 356 20 51 317 326 327
298 306 310 316 325 331 335 342 348 345 345 348 354 332 287 273 272 291 284 320 262 250 258 261 230 284 274 59 19 2 355 347 340 293 344 44 121 249 108 248 115 12 37 358 347 334 333